Location: Pl�tzky
(52.0521°N, 11.8020°E)
Time: 09:40:17
(UTC+00:00)

Cosmos 1869 Rocket - Pass Details

Date: 22 November 2019
Orbit: 604 x 634 km, 82.5° (Epoch: 06 December)

Event Time Altitude Azimuth Distance (km) Brightness Sun altitude
Rises 17:34:20 0° 350° (N) 2,877 7.0 -21.2°
Reaches altitude 10° 17:36:34 10° 353° (N) 1,970 6.1 -21.5°
Maximum altitude 17:40:55 72° 77° (ENE) 645 3.4 -22.2°
Enters shadow 17:41:23 65° 125° (SE) 676 3.4 -22.2°
